Location: Croisilles
(50.1998°N, 2.8793°E)
Time: 13:37:00
(UTC+00:00)

SJ 16-02 - Pass Details

Date: 21 January 2021
Orbit: 606 x 615 km, 75.0° (Epoch: 27 February)

Event Time Altitude Azimuth Distance (km) Brightness Sun altitude
Rises 17:25:50 0° 166° (SSE) 2,866 4.8 -9.8°
Reaches altitude 10° 17:28:24 10° 152° (SSE) 1,965 3.8 -10.2°
Maximum altitude 17:31:52 23° 99° (E) 1,296 2.5 -10.7°
Enters shadow 17:34:26 14° 55° (NE) 1,697 3.0 -11.1°
